Alexandria, LA

2:54 PM CDT on July 21, 2017 (GMT -0500)
Alexandria International

Weather History for KAEX - December, 2013

Change the Weather History Date:

Sunday, December 29, 2013

  Actual Average Record
Temperature  
Mean Temperature 46 °F 49 °F  
Max Temperature 60 °F 59 °F 78 °F (1984)
Min Temperature 32 °F 39 °F 10 °F (1894)
Degree Days  
Heating Degree Days 19 16  
Month to date heating degree days 468 433  
Since 1 July heating degree days 844 758  
Moisture  
Dew Point 37 °F    
Average Humidity 70    
Maximum Humidity 100    
Minimum Humidity 40    
Precipitation  
Precipitation 0.00 in 0.12 in 3.05 in (1927)
Month to date precipitation 2.60 5.86  
Year to date precipitation 55.09 55.66  
Snow  
Snow 0.00 in - 8.00 in (1901)
Month to date snowfall 0.0  
Since 1 July snowfall 0.0  
Snow Depth 0.00 in    
Sea Level Pressure  
Sea Level Pressure 30.08 in    
Wind  
Wind Speed 0 mph (SSW)    
Max Wind Speed 7 mph    
Max Gust Speed 9 mph    
Visibility 8 miles    
Events      
T = Trace of Precipitation, MM = Missing Value Source: NWS Daily Summary

Daily Weather History Graph

Daily Weather History Graph

Search for Another Location

Airport or City:

Trip Planner

Search our weather history database for the weather conditions in past years. The results will help you decide how hot, cold, wet, or windy it might be!

Date:

Astronomy

Dec. 29, 2013 Rise Set
Actual Time 7:08 AM CST 5:16 PM CST
Civil Twilight 6:41 AM CST 5:43 PM CST
Nautical Twilight 6:11 AM CST 6:13 PM CST
Astronomical Twilight 5:41 AM CST 6:43 PM CST
Moon 3:57 AM CST (12/29) 2:50 PM CST (12/29)
Length of Visible Light 11h 01m
Length of Day
10h 08m
Waning Crescent, 11% of the Moon is Illuminated
Dec 29
Waning Crescent
Jan 1
New
Jan 7
First Quarter
Jan 15
Full
Jan 23
Last Quarter

Hourly Weather History & Observations

Time (CST) Temp. Dew Point Humidity Pressure Visibility Wind Dir Wind Speed Gust Speed Precip Events Conditions
12:53 AM 37.9 °F 35.1 °F 89% 30.03 in 10.0 mi Calm Calm - N/A   Clear
1:53 AM 37.0 °F 35.1 °F 93% 30.04 in 8.0 mi Calm Calm - N/A   Clear
2:53 AM 36.0 °F 35.1 °F 97% 30.04 in 6.0 mi Calm Calm - N/A   Clear
3:53 AM 34.0 °F 33.1 °F 96% 30.05 in 6.0 mi Calm Calm - N/A   Clear
4:12 AM 33.8 °F 33.8 °F 100% 30.03 in 2.5 mi Calm Calm - N/A   Clear
4:21 AM 35.6 °F 33.8 °F 93% 30.03 in 7.0 mi Calm Calm - N/A   Clear
4:53 AM 33.1 °F 32.0 °F 96% 30.04 in 5.0 mi Calm Calm - N/A   Clear
5:53 AM 34.0 °F 30.9 °F 89% 30.05 in 4.0 mi Calm Calm - N/A   Clear
6:53 AM 34.0 °F 33.1 °F 96% 30.06 in 5.0 mi Calm Calm - N/A   Clear
7:53 AM 35.1 °F 33.1 °F 92% 30.09 in 8.0 mi Calm Calm - N/A   Clear
8:53 AM 39.9 °F 37.9 °F 93% 30.12 in 10.0 mi Calm Calm - N/A   Clear
9:53 AM 46.9 °F 41.0 °F 80% 30.13 in 10.0 mi SSW 3.5 mph - N/A   Clear
10:53 AM 53.1 °F 36.0 °F 52% 30.13 in 10.0 mi Calm Calm - N/A   Clear
11:53 AM 55.9 °F 37.0 °F 49% 30.10 in 10.0 mi Calm Calm - N/A   Clear
12:53 PM 57.9 °F 35.1 °F 42% 30.07 in 10.0 mi Calm Calm - N/A   Clear
1:53 PM 59.0 °F 35.1 °F 41% 30.06 in 10.0 mi Calm Calm - N/A   Mostly Cloudy
2:53 PM 59.0 °F 35.1 °F 41% 30.06 in 10.0 mi Calm Calm - N/A   Overcast
3:53 PM 59.0 °F 37.0 °F 44% 30.06 in 10.0 mi Calm Calm - N/A   Mostly Cloudy
4:53 PM 57.9 °F 37.0 °F 46% 30.07 in 10.0 mi Calm Calm - N/A   Overcast
5:53 PM 55.0 °F 41.0 °F 59% 30.08 in 10.0 mi Calm Calm - N/A   Partly Cloudy
6:53 PM 50.0 °F 39.9 °F 68% 30.10 in 10.0 mi Calm Calm - N/A   Clear
7:53 PM 50.0 °F 41.0 °F 71% 30.12 in 10.0 mi SSW 3.5 mph - N/A   Partly Cloudy
8:53 PM 50.0 °F 39.9 °F 68% 30.12 in 10.0 mi Calm Calm - N/A   Overcast
9:53 PM 50.0 °F 43.0 °F 77% 30.14 in 10.0 mi Calm Calm - N/A   Overcast
10:53 PM 48.9 °F 41.0 °F 74% 30.15 in 10.0 mi Calm Calm - N/A   Mostly Cloudy
11:53 PM 46.9 °F 43.0 °F 86% 30.15 in 10.0 mi Calm Calm - N/A   Mostly Cloudy